TimeMDT,TemperatureF,Dew PointF,Humidity,Sea Level PressureIn,VisibilityMPH,Wind Direction,Wind SpeedMPH,Gust SpeedMPH,PrecipitationIn,Events,Conditions,WindDirDegrees,DateUTC
12:51 AM,63.0,51.1,65,30.00,10.0,North,4.6,-,N/A,,Clear,10,2013-08-30 06:51:00
1:51 AM,66.0,50.0,56,29.99,10.0,Calm,Calm,-,N/A,,Clear,0,2013-08-30 07:51:00
2:51 AM,62.1,52.0,70,29.99,10.0,North,3.5,-,N/A,,Clear,10,2013-08-30 08:51:00
3:51 AM,60.1,50.0,69,30.00,10.0,Calm,Calm,-,N/A,,Clear,0,2013-08-30 09:51:00
4:51 AM,57.9,50.0,75,30.01,10.0,Calm,Calm,-,N/A,,Clear,0,2013-08-30 10:51:00
5:51 AM,57.9,48.9,72,30.01,10.0,SSE,4.6,-,N/A,,Clear,150,2013-08-30 11:51:00
6:51 AM,55.0,48.9,80,30.05,10.0,NE,4.6,-,N/A,,Partly Cloudy,40,2013-08-30 12:51:00
7:51 AM,60.1,51.1,72,30.05,9.0,Calm,Calm,-,N/A,,Clear,0,2013-08-30 13:51:00
8:51 AM,66.9,51.1,57,30.06,10.0,Calm,Calm,-,N/A,,Clear,0,2013-08-30 14:51:00
9:51 AM,73.0,50.0,44,30.05,10.0,NNE,4.6,-,N/A,,Clear,30,2013-08-30 15:51:00
10:51 AM,79.0,48.9,35,30.04,10.0,North,5.8,-,N/A,,Clear,360,2013-08-30 16:51:00
11:51 AM,81.0,50.0,34,30.04,10.0,WSW,3.5,-,N/A,,Clear,240,2013-08-30 17:51:00
12:51 PM,88.0,46.9,24,30.01,10.0,Calm,Calm,-,N/A,,Clear,0,2013-08-30 18:51:00
1:51 PM,89.1,48.0,24,29.97,10.0,SW,3.5,-,N/A,,Clear,230,2013-08-30 19:51:00
2:51 PM,93.0,48.0,21,29.94,10.0,Variable,6.9,-,N/A,,Clear,0,2013-08-30 20:51:00
3:51 PM,93.0,48.0,21,29.92,10.0,SW,9.2,-,N/A,,Clear,230,2013-08-30 21:51:00
4:51 PM,93.0,48.0,21,29.91,10.0,South,9.2,-,N/A,,Clear,170,2013-08-30 22:51:00
5:51 PM,93.0,45.0,19,29.89,10.0,West,4.6,-,N/A,,Clear,260,2013-08-30 23:51:00
6:51 PM,91.9,44.1,19,29.89,10.0,SW,4.6,-,N/A,,Clear,230,2013-08-31 00:51:00
7:51 PM,82.0,53.1,37,29.91,10.0,NW,3.5,-,N/A,,Clear,320,2013-08-31 01:51:00
8:51 PM,75.0,55.0,50,29.92,10.0,NNE,3.5,-,N/A,,Clear,20,2013-08-31 02:51:00
9:51 PM,75.0,55.0,50,29.92,10.0,Calm,Calm,-,N/A,,Clear,0,2013-08-31 03:51:00
10:51 PM,72.0,55.9,57,29.92,10.0,SW,6.9,-,N/A,,Clear,220,2013-08-31 04:51:00
11:51 PM,72.0,51.1,48,29.93,10.0,SW,4.6,-,N/A,,Clear,230,2013-08-31 05:51:00